Regional Weather Roundup
Issued by NWS

Home | Current Version | Previous Version | Text Only | Print | Product List | Glossary Off
Versions: 1 2 3 4 5 6 7 8 9 10 11 12 13 14 15 16 17 18 19 20 21 22 23 24 25 26 27 28 29 30 31 32 33 34 35 36 37 38 39 40 41 42 43 44 45 46 47 48 49 50

911
ASUS45 KPSR 272210
RWRAZ

ARIZONA HOURLY REGIONAL WEATHER ROUNDUP
NATIONAL WEATHER SERVICE PHOENIX AZ
300 PM MST THU JUL 27 2017

NOTE: FAIR INDICATES FEW OR NO CLOUDS BELOW 12,000 FEET WITH NO
SIGNIFICANT WEATHER AND/OR OBSTRUCTIONS TO VISIBILITY.

AZZ001>003-036-272300-
NORTHWEST ARIZONA

CITY           SKY/WX    TMP DP  RH WIND       PRES   REMARKS
BULLHEAD CITY  MOSUNNY  111  39   8 SW6G17    29.77F HX 105
KINGMAN        FAIR      99  48  17 SW8G21    30.01F
$$

AZZ004>008-015-016-018-272300-
NORTH CENTRAL ARIZONA

CITY           SKY/WX    TMP DP  RH WIND       PRES   REMARKS
GRAND CANYON   PTSUNNY   87  47  24 VRB6      30.26F
WILLIAMS       RAIN      64  57  77 SW7       30.29F
PRESCOTT       FAIR      85  61  44 W9        30.15S
FLAGSTAFF      FAIR      73  57  57 VRB3      30.31F THUNDER
PAYSON         CLOUDY    70  61  73 E9        30.21F
PAGE           FAIR      96  53  23 W8        30.04F
$$

AZZ009>014-017-272300-
NORTHEAST ARIZONA

CITY           SKY/WX    TMP DP  RH WIND       PRES   REMARKS
WINSLOW        FAIR      86  56  35 W21G32    30.12R
SAINT JOHNS    PTSUNNY   79  55  43 SW18G26   30.17R
WINDOW ROCK    FAIR      80  53  39 SW8       30.27F
$$

AZZ540-542>544-546-548-272300-
GREATER PHOENIX AREA

CITY           SKY/WX    TMP DP  RH WIND       PRES   REMARKS
PHOENIX        PTSUNNY  108  55  17 W12G21    29.77F HX 107
BUCKEYE          N/A    108  50  14 W6        29.78F HX 104
GLENDALE       PTSUNNY  109  54  16 S12G20    29.79F HX 108
LUKE AFB       SUNNY    108  54  17 S9        29.77F HX 106
DEER VALLEY    FAIR     107  55  18 SW9G17    29.80F HX 106
SCOTTSDALE     FAIR     107  55  18 W8        29.82F HX 106
MESA-FALCON    MOSUNNY  106  61  23 W10       29.81F HX 107
MESA-GATEWAY   PTSUNNY  106  57  20 SW5G16    29.82F HX 105
CHANDLER       SUNNY    106  54  17 SW14      29.80F HX 104
$$

AZZ539-553-272300-
SOUTHWEST MARICOPA COUNTY AND PINAL COUNTY

CITY           SKY/WX    TMP DP  RH WIND       PRES   REMARKS
CASA GRANDE    FAIR     105  59  22 W12       29.83F HX 105
GILA BEND      MOSUNNY  107  50  14 NW3       29.77F HX 104
$$

AZZ503-504-507>509-272300-
SOUTHEAST ARIZONA

CITY           SKY/WX    TMP DP  RH WIND       PRES   REMARKS
TUCSON         FAIR      99  57  24 VRB3      29.94F
DAVIS-MONTHAN  PTSUNNY  103  56  21 W8        29.93F HX 101
RYAN FIELD     SUNNY     99  55  23 N5        29.92F
NOGALES        FAIR      94  59  31 NW8       30.04F
SIERRA VISTA   FAIR      84  58  41 W5        30.12F
DOUGLAS        FAIR      85  61  44 N12       30.04F
SAFFORD        FAIR      97  59  28 VRB7      29.93F
$$

AZZ532-272300-
SOUTHWEST ARIZONA

CITY           SKY/WX    TMP DP  RH WIND       PRES   REMARKS
YUMA           FAIR     108  51  15 S8        29.75F HX 105
$$

CAZ041-043-047-048-061-525>527-560>570-272300-
SOUTHERN CALIFORNIA

CITY           SKY/WX    TMP DP  RH WIND       PRES   REMARKS
DOWNTOWN L.A.  FAIR      82  62  50 MISG      29.89F
L.A. AIRPORT   PTSUNNY   74  64  71 W18       29.91F
SAN DIEGO      FAIR      77  64  64 NW13      29.93S
BURBANK        FAIR      91  61  36 S10       29.89F
ONTARIO        PTSUNNY   97  56  25 W14       29.89F
RIVERSIDE      FAIR      97  62  31 W16       29.88F
PALM SPRINGS   FAIR     113  49  12 VRB6      29.76F HX 109
EL CENTRO NAS  FAIR     109  48  13 VRB5      29.74F HX 105
IMPERIAL       FAIR     110  59  19 SW7       29.72F HX 111
BLYTHE         PTSUNNY  110  54  15 S12       29.75F HX 108
NEEDLES        FAIR     112  47  11 MISG      29.77F HX 107
$$

NVZ020-UTZ003-272300-
SOUTHERN NEVADA-UTAH

CITY           SKY/WX    TMP DP  RH WIND       PRES   REMARKS
LAS VEGAS      FAIR     103  54  19 CALM      29.89F HX 101
SALT LAKE CITY FAIR      89  56  32 N8        30.10F
$$

NMZ009-TXZ055-272300-
NEW MEXICO-WEST TEXAS

CITY           SKY/WX    TMP DP  RH WIND       PRES   REMARKS
ALBUQUERQUE    FAIR      86  52  30 S7        30.14F
EL PASO        LGT RAIN  78  61  55 N16       30.04F
$$


........................KEY........................
SKY/WX - SKY CONDITION/WEATHER
TMP    - TEMPERATURE IN FAHRENHEIT
DP     - DEW POINT IN FAHRENHEIT
RH     - RELATIVE HUMIDITY IN PERCENT
WIND   - DIRECTION AND SPEED IN MILES PER HOUR (MPH)
VRB    - VARIABLE WIND DIRECTION
PRES   - MEAN SEA LEVEL PRESSURE IN INCHES OF MERCURY
         F - FALLING PRESSURE   R - RISING PRESSURE
         S - STEADY PRESSURE
VSB    - VISIBILITY IN MILES
HX     - HEAT INDEX IN FAHRENHEIT
WCI    - WIND CHILL INDEX IN FAHRENHEIT
TC     - TEMPERATURE IN CELSIUS WHICH IS ALSO KNOWN AS
         TEMPERATURE IN CENTIGRADE
AFB    - AIR FORCE BASE
         LUKE AFB IS LUKE AIR FORCE BASE
         DAVIS-MONTHAN IS DAVIS-MONTHAN AIR FORCE BASE
NAS    - NAVAL AIR STATION
         EL CENTRO NAS IS EL CENTRO NAVAL AIR STATION
N/A    - NOT AVAILABLE





USA.gov is the U.S. government's official web portal to all federal, state and local government web resources and services.